Date String (YYYY-MM-DD hh:mm:ss) UTC,Instrument flags,absolute air pressure of the measurement (hPa),sample flow rate (lpm),inlet stack bypass flow (lpm),air temperature of the measurement (°C),ambient temperature measured by the external sensor (°C),aerosol sample conditioner tube jacket temperature (°C),OPC LED temperature (°C),internal box temperature (°C),relative humidity of the measurement (%),span deviation,mass concentration of particles derived from Lorenz-Mie calculation of OPC scattering (μg/m³),mass concentration of particles derived from Lorenz-Mie calculation of OPC scattering (μg/m³),mass concentration of particles derived from Lorenz-Mie calculation of OPC scattering (μg/m³)
DateTimeUTC,F1_M11,P_M11,Q1_M11,Q2_M11,T1_M11,T2_M11,T3_M11,T4_M11,T5_M11,U1_M11,ZSPAN_M11,X0_M11,X2_M11,X1_M11
2023-06-08 12:00:00,SystemResetWarning,0830.5,5.01,000.00,029.8,028.1,000.0,038.4,031.2,22.7,0000.0,0004.34,0002.62,0002.20
2023-06-08 12:01:00,SystemResetWarning,0830.5,4.99,000.00,029.8,028.1,000.0,038.4,031.3,22.6,0000.0,0004.36,0002.63,0002.19
2023-06-08 12:02:00,SystemResetWarning,0830.4,4.99,000.00,029.8,028.1,000.0,038.4,031.2,22.5,0000.0,0004.41,0002.67,0002.19
2023-06-08 12:03:00,SystemResetWarning,0830.6,5.00,000.00,029.8,028.1,000.0,038.4,031.2,22.5,0000.0,0004.86,0002.65,0002.19
2023-06-08 12:04:00,SystemResetWarning,0830.5,5.01,000.00,029.8,028.1,000.0,038.4,031.3,22.2,0000.0,0005.21,0002.62,0002.18
2023-06-08 12:05:00,SystemResetWarning,0830.7,5.00,000.00,029.8,028.1,000.0,038.4,031.3,22.2,0000.0,0005.01,0002.67,0002.18
2023-06-08 12:06:00,SystemResetWarning,0830.5,5.01,000.00,029.8,028.1,000.0,038.4,031.3,22.2,0000.0,0005.37,0002.68,0002.18
2023-06-08 12:07:00,SystemResetWarning,0830.5,5.01,000.00,029.8,028.1,000.0,038.4,031.3,22.2,0000.0,0006.09,0002.67,0002.18
2023-06-08 12:08:00,SystemResetWarning,0830.5,4.98,000.00,029.8,028.1,000.0,038.4,031.3,22.2,0000.0,0006.15,0002.70,0002.17
2023-06-08 12:09:00,SystemResetWarning,0830.5,4.99,000.00,029.9,028.1,000.0,038.4,031.3,22.1,0000.0,0006.43,0002.70,0002.17
2023-06-08 12:10:00,SystemResetWarning,0830.5,5.01,000.00,029.9,028.1,000.0,038.4,031.3,22.1,0000.0,0006.38,0002.68,0002.17
2023-06-08 12:11:00,SystemResetWarning,0830.6,5.00,000.00,029.9,028.1,000.0,038.4,031.3,21.9,0000.0,0006.31,0002.65,0002.16
2023-06-08 12:12:00,SystemResetWarning,0830.5,5.00,000.00,029.9,028.2,000.0,038.4,031.3,22.0,0000.0,0006.36,0002.63,0002.14
2023-06-08 12:13:00,SystemResetWarning,0830.5,5.00,000.00,029.9,028.2,000.0,038.4,031.3,22.8,0000.0,0006.57,0002.65,0002.16
2023-06-08 12:14:00,SystemResetWarning,0830.5,5.00,000.00,029.9,028.2,000.0,038.4,031.3,22.9,0000.0,0006.53,0002.63,0002.15
2023-06-08 12:15:00,SystemResetWarning,0830.6,5.00,000.00,029.9,028.2,000.0,038.4,031.3,23.6,0000.0,0005.75,0002.66,0002.15
2023-06-08 12:16:00,SystemResetWarning,0830.6,5.00,000.00,029.9,028.2,000.0,038.5,031.3,22.2,0000.0,0005.89,0002.61,0002.14
2023-06-08 12:17:00,SystemResetWarning,0830.6,4.99,000.00,029.9,028.2,000.0,038.5,031.3,21.9,0000.0,0005.40,0002.56,0002.13
2023-06-08 12:18:00,SystemResetWarning,0830.6,4.99,000.00,029.9,028.2,000.0,038.5,031.3,21.8,0000.0,0004.64,0002.53,0002.11
2023-06-08 12:19:00,SystemResetWarning,0830.6,5.00,000.00,029.9,028.2,000.0,038.5,031.3,21.8,0000.0,0004.75,0002.55,0002.10
2023-06-08 12:20:00,SystemResetWarning,0830.7,5.01,000.00,029.9,028.2,000.0,038.5,031.3,21.8,0000.0,0005.20,0002.56,0002.10
2023-06-08 12:21:00,SystemResetWarning,0830.6,4.99,000.00,029.9,028.2,000.0,038.5,031.3,22.1,0000.0,0005.41,0002.66,0002.11
2023-06-08 12:22:00,SystemResetWarning,0830.7,4.99,000.00,029.9,028.2,000.0,038.5,031.3,22.9,0000.0,0005.53,0002.72,0002.11
2023-06-08 12:23:00,SystemResetWarning,0830.7,5.01,000.00,029.9,028.2,000.0,038.5,031.3,23.2,0000.0,0005.59,0002.75,0002.12
2023-06-08 12:24:00,SystemResetWarning,0830.6,5.01,000.00,029.9,028.2,000.0,038.5,031.3,22.9,0000.0,0005.55,0002.76,0002.11
2023-06-08 12:25:00,SystemResetWarning,0830.6,5.01,000.00,029.9,028.2,000.0,038.5,031.4,23.1,0000.0,0005.54,0002.84,0002.12
2023-06-08 12:26:00,SystemResetWarning,0830.6,4.99,000.00,029.9,028.2,000.0,038.5,031.3,22.9,0000.0,0005.83,0002.89,0002.14
2023-06-08 12:27:00,SystemResetWarning,0830.6,4.99,000.00,029.9,028.2,000.0,038.5,031.3,22.6,0000.0,0005.50,0002.90,0002.14
2023-06-08 12:28:00,SystemResetWarning,0830.6,5.00,000.00,029.9,028.2,000.0,038.5,031.3,22.6,0000.0,0005.49,0002.91,0002.15
2023-06-08 12:29:00,SystemResetWarning,0830.6,5.01,000.00,029.9,028.2,000.0,038.5,031.3,23.3,0000.0,0005.58,0002.94,0002.16
2023-06-08 12:30:00,SystemResetWarning,0830.6,5.01,000.00,029.9,028.2,000.0,038.5,031.3,25.3,0000.0,0005.41,0002.90,0002.18
2023-06-08 12:31:00,SystemResetWarning,0830.6,5.00,000.00,029.9,028.2,000.0,038.5,031.3,23.6,0000.0,0005.02,0002.91,0002.20
2023-06-08 12:32:00,SystemResetWarning,0830.5,5.00,000.00,029.9,028.2,000.0,038.5,031.3,22.4,0000.0,0004.64,0002.85,0002.19
2023-06-08 12:33:00,SystemResetWarning,0830.6,5.00,000.00,029.9,028.2,000.0,038.5,031.3,22.2,0000.0,0004.50,0002.79,0002.19
2023-06-08 12:34:00,SystemResetWarning,0830.5,5.00,000.00,029.9,028.2,000.0,038.5,031.3,22.2,0000.0,0004.36,0002.72,0002.18
2023-06-08 12:35:00,SystemResetWarning,0830.5,5.00,000.00,029.9,028.2,000.0,038.5,031.3,23.4,0000.0,0004.31,0002.68,0002.17
2023-06-08 12:36:00,SystemResetWarning,0830.5,5.00,000.00,029.9,028.3,000.0,038.5,031.3,24.5,0000.0,0004.61,0002.76,0002.17
2023-06-08 12:37:00,SystemResetWarning,0830.5,5.00,000.00,029.9,028.3,000.0,038.5,031.3,22.5,0000.0,0004.37,0002.75,0002.16
2023-06-08 12:38:00,SystemResetWarning,0830.4,5.00,000.00,029.9,028.3,000.0,038.5,031.4,22.1,0000.0,0004.38,0002.74,0002.16
2023-06-08 12:39:00,SystemResetWarning,0830.5,5.00,000.00,030.0,028.3,000.0,038.5,031.4,23.6,0000.0,0004.39,0002.76,0002.16
2023-06-08 12:40:00,SystemResetWarning,0830.4,5.00,000.00,030.0,028.3,000.0,038.5,031.4,23.8,0000.0,0004.41,0002.78,0002.17
2023-06-08 12:41:00,SystemResetWarning,0830.4,5.00,000.00,030.0,028.3,000.0,038.5,031.4,23.2,0000.0,0004.59,0002.80,0002.17
2023-06-08 12:42:00,SystemResetWarning,0830.4,5.00,000.00,030.0,028.3,000.0,038.5,031.4,22.4,0000.0,0004.47,0002.77,0002.16
2023-06-08 12:43:00,SystemResetWarning,0830.4,5.00,000.00,030.0,028.3,000.0,038.5,031.4,22.3,0000.0,0004.51,0002.80,0002.17
2023-06-08 12:44:00,SystemResetWarning,0830.5,5.00,000.00,030.0,028.3,000.0,038.5,031.4,22.6,0000.0,0004.60,0002.82,0002.19
2023-06-08 12:45:00,SystemResetWarning,0830.6,5.00,000.00,030.0,028.3,000.0,038.5,031.4,22.8,0000.0,0004.73,0002.87,0002.21
2023-06-08 12:46:00,SystemResetWarning,0830.6,5.00,000.00,030.0,028.3,000.0,038.5,031.4,22.7,0000.0,0004.94,0002.94,0002.24
2023-06-08 12:47:00,SystemResetWarning,0830.5,5.00,000.00,030.0,028.3,000.0,038.5,031.4,22.7,0000.0,0004.43,0002.79,0002.24
2023-06-08 12:48:00,SystemResetWarning,0830.6,5.00,000.00,030.0,028.3,000.0,038.6,031.4,22.4,0000.0,0004.22,0002.74,0002.24
2023-06-08 12:49:00,SystemResetWarning,0830.4,5.00,000.00,030.0,028.3,000.0,038.6,031.4,22.8,0000.0,0004.15,0002.74,0002.24
2023-06-08 12:50:00,SystemResetWarning,0830.4,5.00,000.00,030.0,028.3,000.0,038.6,031.4,22.8,0000.0,0004.25,0002.73,0002.24
2023-06-08 12:51:00,SystemResetWarning,0830.6,5.00,000.00,030.0,028.3,000.0,038.6,031.4,24.2,0000.0,0004.18,0002.71,0002.25
2023-06-08 12:52:00,SystemResetWarning,0830.5,5.00,000.00,030.0,028.3,000.0,038.6,031.4,24.6,0000.0,0004.11,0002.71,0002.25
2023-06-08 12:53:00,SystemResetWarning,0830.5,4.99,000.00,030.0,028.3,000.0,038.6,031.4,24.6,0000.0,0004.48,0002.72,0002.25
2023-06-08 12:54:00,SystemResetWarning,0830.6,5.00,000.00,030.0,028.3,000.0,038.6,031.4,24.3,0000.0,0004.55,0002.72,0002.25
2023-06-08 12:55:00,SystemResetWarning,0830.8,5.02,000.00,030.0,028.3,000.0,038.6,031.4,23.9,0000.0,0004.59,0002.73,0002.23
2023-06-08 12:56:00,SystemResetWarning,0830.5,5.01,000.00,030.0,028.4,000.0,038.6,031.4,25.1,0000.0,0004.72,0002.76,0002.22
2023-06-08 12:57:00,SystemResetWarning,0830.6,5.01,000.00,030.0,028.4,000.0,038.6,031.4,25.8,0000.0,0004.53,0002.72,0002.22
2023-06-08 12:58:00,SystemResetWarning,0830.5,5.00,000.00,030.0,028.3,000.0,038.6,031.4,26.2,0000.0,0004.52,0002.73,0002.22
2023-06-08 12:59:00,SystemResetWarning,0830.4,4.99,000.00,030.0,028.3,000.0,038.6,031.4,24.9,0000.0,0004.69,0002.78,0002.23
